| time (UTC) | temp C | wind direction | speed KPH | gust KPH | rain 1hr cm | rain 24hr cm | rain mn cm | humidity % | barometer mb |
| 20260510153630 | 22 | 240 | 4.8 | 11.3 | 0.00 | 0.05 | 0.00 | 64 | 1012.8 |
| 20260510152806 | 22 | 275 | 4.8 | 6.4 | 0.00 | 0.05 | 0.00 | 64 | 1012.8 |
| 20260510152307 | 22 | 200 | 3.2 | 6.4 | 0.00 | 0.05 | 0.00 | 67 | 1012.8 |
| 20260510151805 | 22 | 313 | 0.0 | 3.2 | 0.00 | 0.05 | 0.00 | 63 | 1012.9 |
| 20260510151305 | 22 | 310 | 1.6 | 4.8 | 0.00 | 0.05 | 0.00 | 66 | 1012.8 |
| 20260510150805 | 22 | 333 | 3.2 | 8.0 | 0.00 | 0.05 | 0.00 | 68 | 1012.7 |
| 20260510150304 | 22 | 274 | 1.6 | 9.7 | 0.00 | 0.05 | 0.00 | 66 | 1012.7 |
| 20260510145804 | 21 | 245 | 6.4 | 9.7 | 0.00 | 0.05 | 0.00 | 67 | 1012.7 |
| 20260510145306 | 21 | 202 | 6.4 | 9.7 | 0.00 | 0.05 | 0.00 | 69 | 1012.7 |
| 20260510144805 | 21 | 248 | 1.6 | 9.7 | 0.00 | 0.05 | 0.00 | 68 | 1012.7 |
| 20260510144305 | 21 | 283 | 3.2 | 9.7 | 0.00 | 0.05 | 0.00 | 70 | 1012.7 |
| 20260510143805 | 21 | 31 | 4.8 | 8.0 | 0.00 | 0.05 | 0.00 | 71 | 1012.8 |
| 20260510143305 | 20 | 230 | 3.2 | 8.0 | 0.00 | 0.05 | 0.00 | 69 | 1012.8 |
| 20260510142805 | 20 | 254 | 4.8 | 8.0 | 0.00 | 0.05 | 0.00 | 69 | 1012.9 |
| 20260510142306 | 20 | 248 | 3.2 | 6.4 | 0.00 | 0.05 | 0.00 | 71 | 1012.9 |
| 20260510142059 | 20 | 214 | 3.2 | 6.4 | 0.00 | 0.05 | 0.00 | 71 | 1012.9 |
| 20260510141435 | 20 | 23 | 1.6 | 4.8 | 0.00 | 0.05 | 0.00 | 74 | 1012.9 |
| 20260510141359 | 20 | 237 | 3.2 | 6.4 | 0.00 | 0.05 | 0.00 | 72 | 1012.9 |
| 20260510140625 | 19 | 285 | 1.6 | 4.8 | 0.00 | 0.05 | 0.00 | 74 | 1012.9 |
| 20260510140123 | 19 | 266 | 3.2 | 4.8 | 0.00 | 0.05 | 0.00 | 73 | 1012.9 |
| 20260510135622 | 18 | 316 | 0.0 | 4.8 | 0.00 | 0.05 | 0.00 | 75 | 1012.8 |
| 20260510134804 | 18 | 235 | 1.6 | 4.8 | 0.00 | 0.05 | 0.00 | 76 | 1012.8 |
| 20260510134303 | 18 | 295 | 0.0 | 4.8 | 0.00 | 0.05 | 0.00 | 77 | 1012.7 |
| 20260510133804 | 18 | 295 | 1.6 | 8.0 | 0.00 | 0.05 | 0.00 | 80 | 1012.7 |
| 20260510133615 | 17 | 227 | 4.8 | 8.0 | 0.00 | 0.05 | 0.00 | 82 | 1012.7 |
| 20260510132946 | 17 | 238 | 3.2 | 4.8 | 0.00 | 0.05 | 0.00 | 84 | 1012.7 |
| 20260510132905 | 17 | 247 | 4.8 | 6.4 | 0.00 | 0.05 | 0.00 | 82 | 1012.7 |
| 20260510131817 | 15 | 193 | 1.6 | 3.2 | 0.00 | 0.05 | 0.00 | 92 | 1012.8 |
| 20260510131809 | 16 | 190 | 3.2 | 4.8 | 0.00 | 0.05 | 0.00 | 86 | 1012.7 |
| 20260510131408 | 16 | 220 | 3.2 | 4.8 | 0.00 | 0.05 | 0.00 | 88 | 1012.7 |
| 20260510130303 | 15 | 0.0 | 0.0 | 0.00 | 0.05 | 0.00 | 92 | 1012.8 | |
| 20260510125803 | -17 | 217 | 0.0 | 1.6 | 0.00 | 0.05 | 0.00 | 1012.8 | |
| 20260510125306 | -17 | 217 | 0.0 | 4.8 | 0.00 | 0.05 | 0.00 | 1012.8 | |
| 20260510124803 | -17 | 217 | 1.6 | 4.8 | 0.00 | 0.05 | 0.00 | 1012.9 | |
| 20260510124304 | 12 | 257 | 0.0 | 3.2 | 0.00 | 0.05 | 0.00 | 95 | 1012.8 |
| 20260510124119 | 12 | 207 | 1.6 | 4.8 | 0.00 | 0.05 | 0.00 | 95 | 1012.8 |
| 20260510123304 | 12 | 195 | 3.2 | 4.8 | 0.00 | 0.05 | 0.00 | 95 | 1012.8 |
| 20260510122803 | 12 | 186 | 0.0 | 4.8 | 0.00 | 0.05 | 0.00 | 95 | 1012.7 |
| 20260510122628 | 11 | 186 | 1.6 | 4.8 | 0.00 | 0.05 | 0.00 | 95 | 1012.6 |
| 20260510121803 | -17 | 39 | 0.0 | 0.0 | 0.00 | 0.05 | 0.00 | 1012.5 | |
| 20260510121304 | -17 | 39 | 0.0 | 1.6 | 0.00 | 0.05 | 0.00 | 1012.4 | |
| 20260510121109 | -17 | 39 | 0.0 | 1.6 | 0.00 | 0.05 | 0.00 | 1012.2 | |
| 20260510120302 | 11 | 39 | 0.0 | 1.6 | 0.00 | 0.05 | 0.00 | 95 | 1012.2 |
| 20260510115802 | 11 | 39 | 0.0 | 1.6 | 0.00 | 0.05 | 0.00 | 95 | 1012.2 |
| 20260510115305 | 11 | 39 | 0.0 | 1.6 | 0.00 | 0.05 | 0.00 | 95 | 1012.2 |
| 20260510115118 | 11 | 39 | 0.0 | 1.6 | 0.00 | 0.05 | 0.00 | 95 | 1012.1 |
| 20260510114303 | 11 | 39 | 0.0 | 3.2 | 0.00 | 0.05 | 0.00 | 95 | 1012.1 |
| 20260510113802 | 11 | 39 | 0.0 | 3.2 | 0.00 | 0.05 | 0.00 | 95 | 1012.0 |
| 20260510113304 | 11 | 39 | 1.6 | 3.2 | 0.00 | 0.05 | 0.00 | 95 | 1011.9 |
| 20260510112803 | 10 | 39 | 0.0 | 1.6 | 0.00 | 0.05 | 0.00 | 95 | 1011.8 |
| 20260510112305 | 10 | 39 | 0.0 | 1.6 | 0.00 | 0.05 | 0.00 | 95 | 1011.7 |
| 20260510111804 | 10 | 0.0 | 0.0 | 0.00 | 0.05 | 0.00 | 95 | 1011.9 | |
| 20260510111618 | 10 | 34 | 1.6 | 1.6 | 0.00 | 0.05 | 0.00 | 95 | 1012.0 |
| 20260510110804 | -17 | 34 | 1.6 | 1.6 | 0.00 | 0.05 | 0.00 | 1011.7 | |
| 20260510110302 | -17 | 31 | 1.6 | 1.6 | 0.00 | 0.05 | 0.00 | 1011.9 | |
| 20260510105759 | -17 | 31 | 1.6 | 3.2 | 0.00 | 0.05 | 0.00 | 1011.9 | |
| 20260510105259 | 10 | 32 | 1.6 | 3.2 | 0.00 | 0.05 | 0.00 | 94 | 1011.8 |
| 20260510104759 | 10 | 20 | 1.6 | 1.6 | 0.00 | 0.05 | 0.00 | 94 | 1011.6 |
| 20260510104300 | 10 | 20 | 0.0 | 1.6 | 0.00 | 0.05 | 0.00 | 94 | 1011.5 |
| 20260510103800 | 10 | 20 | 0.0 | 4.8 | 0.00 | 0.05 | 0.00 | 95 | 1011.4 |
| 20260510103257 | 10 | 20 | 1.6 | 4.8 | 0.00 | 0.05 | 0.00 | 95 | 1011.3 |
| 20260510102800 | 10 | 0.0 | 0.0 | 0.00 | 0.05 | 0.00 | 94 | 1011.4 | |
| 20260510102257 | 10 | 35 | 0.0 | 0.0 | 0.00 | 0.05 | 0.00 | 94 | 1011.3 |
| 20260510102112 | 10 | 35 | 0.0 | 1.6 | 0.00 | 0.05 | 0.00 | 94 | 1011.1 |
| 20260510101257 | 10 | 35 | 0.0 | 1.6 | 0.00 | 0.05 | 0.00 | 94 | 1011.0 |
| 20260510100756 | 10 | 35 | 0.0 | 3.2 | 0.00 | 0.05 | 0.00 | 94 | 1011.2 |
| 20260510100611 | 10 | 35 | 1.6 | 3.2 | 0.00 | 0.05 | 0.00 | 94 | 1011.1 |
| 20260510095757 | 9 | 38 | 1.6 | 3.2 | 0.00 | 0.05 | 0.00 | 94 | 1011.1 |
| 20260510095519 | 9 | 28 | 1.6 | 3.2 | 0.00 | 0.05 | 0.00 | 94 | 1011.1 |
| 20260510094755 | 9 | 28 | 1.6 | 3.2 | 0.00 | 0.05 | 0.00 | 94 | 1010.9 |
| 20260510094254 | -17 | 61 | 0.0 | 1.6 | 0.00 | 0.05 | 0.00 | 1011.0 | |
| 20260510093752 | -17 | 61 | 0.0 | 1.6 | 0.00 | 0.05 | 0.00 | 1011.0 | |
| 20260510093252 | 9 | 63 | 0.0 | 0.0 | 0.00 | 0.05 | 0.00 | 94 | 1010.9 |
| 20260510092752 | 9 | 63 | 0.0 | 0.0 | 0.00 | 0.05 | 0.00 | 94 | 1010.7 |
| 20260510092252 | -17 | 0.0 | 0.0 | 0.00 | 0.05 | 0.00 | 1010.7 | ||
| 20260510091751 | 9 | 0.0 | 0.0 | 0.00 | 0.05 | 0.00 | 94 | 1010.9 | |
| 20260510091249 | 9 | 0.0 | 0.0 | 0.00 | 0.05 | 0.00 | 94 | 1011.0 | |
| 20260510090746 | 9 | 0.0 | 0.0 | 0.00 | 0.05 | 0.00 | 94 | 1010.8 | |
| 20260510090246 | 9 | 39 | 0.0 | 4.8 | 0.00 | 0.05 | 0.00 | 94 | 1010.8 |
| 20260510085746 | -17 | 39 | 0.0 | 4.8 | 0.00 | 0.05 | 0.00 | 1011.1 | |
| 20260510085247 | -17 | 38 | 1.6 | 3.2 | 0.00 | 0.05 | 0.00 | 1011.0 | |
| 20260510084746 | -17 | 49 | 0.0 | 0.0 | 0.00 | 0.05 | 0.00 | 1011.4 | |
| 20260510084246 | 9 | 0.0 | 0.0 | 0.00 | 0.05 | 0.00 | 93 | 1010.9 | |
| 20260510083745 | 9 | 0.0 | 0.0 | 0.00 | 0.05 | 0.00 | 93 | 1011.0 | |
| 20260510083245 | -17 | 114 | 0.0 | 0.0 | 0.00 | 0.05 | 0.00 | 1010.9 | |
| 20260510082742 | -17 | 114 | 0.0 | 0.0 | 0.00 | 0.05 | 0.00 | 1011.1 | |
| 20260510082240 | -17 | 25 | 0.0 | 0.0 | 0.00 | 0.05 | 0.00 | 1010.9 | |
| 20260510081740 | -17 | 25 | 0.0 | 0.0 | 0.00 | 0.05 | 0.00 | 1010.4 | |
| 20260510081239 | -17 | 25 | 0.0 | 0.0 | 0.00 | 0.05 | 0.00 | 1010.4 | |
| 20260510080740 | 8 | 25 | 0.0 | 0.0 | 0.00 | 0.05 | 0.00 | 93 | 1010.3 |
| 20260510080240 | 8 | 25 | 0.0 | 0.0 | 0.00 | 0.05 | 0.00 | 93 | 1010.2 |
| 20260510075738 | 8 | 25 | 0.0 | 0.0 | 0.00 | 0.05 | 0.00 | 93 | 1010.2 |
| 20260510075555 | 8 | 25 | 0.0 | 0.0 | 0.00 | 0.05 | 0.00 | 92 | 1010.3 |
| 20260510074739 | 9 | 0.0 | 0.0 | 0.00 | 0.05 | 0.00 | 92 | 1010.3 | |
| 20260510074240 | 9 | 0.0 | 0.0 | 0.00 | 0.05 | 0.00 | 92 | 1010.3 | |
| 20260510073738 | 9 | 25 | 3.2 | 3.2 | 0.00 | 0.05 | 0.00 | 92 | 1010.3 |
| 20260510073241 | 9 | 25 | 3.2 | 3.2 | 0.00 | 0.05 | 0.00 | 92 | 1010.2 |
| 20260510072739 | 9 | 7 | 1.6 | 3.2 | 0.00 | 0.05 | 0.00 | 92 | 1010.2 |
| 20260510072553 | 10 | 7 | 0.0 | 0.0 | 0.00 | 0.05 | 0.00 | 92 | 1010.1 |
| 20260510072051 | 10 | 7 | 0.0 | 0.0 | 0.00 | 0.05 | 0.00 | 92 | 1010.1 |
| 20260510071508 | 10 | 7 | 0.0 | 0.0 | 0.00 | 0.05 | 0.00 | 93 | 1010.0 |
| 20260510071028 | 10 | 7 | 0.0 | 0.0 | 0.00 | 0.05 | 0.00 | 93 | 1009.9 |
| 20260510070549 | 10 | 7 | 0.0 | 0.0 | 0.00 | 0.05 | 0.00 | 94 | 1009.9 |
| 20260510065736 | 10 | 7 | 0.0 | 0.0 | 0.00 | 0.05 | 0.00 | 93 | 1009.9 |
| 20260510065237 | 10 | 7 | 0.0 | 0.0 | 0.00 | 0.05 | 0.00 | 93 | 1009.8 |
| 20260510065028 | 10 | 7 | 0.0 | 0.0 | 0.00 | 0.05 | 0.00 | 93 | 1009.7 |
| 20260510064237 | 10 | 7 | 0.0 | 0.0 | 0.00 | 0.05 | 0.00 | 93 | 1009.6 |
| 20260510063738 | 10 | 7 | 0.0 | 0.0 | 0.00 | 0.05 | 0.00 | 93 | 1009.6 |
| 20260510063557 | 10 | 7 | 0.0 | 0.0 | 0.00 | 0.05 | 0.00 | 93 | 1009.7 |
| 20260510062738 | 10 | 7 | 0.0 | 0.0 | 0.00 | 0.05 | 0.00 | 93 | 1009.8 |
| 20260510062238 | 10 | 7 | 0.0 | 0.0 | 0.00 | 0.05 | 0.00 | 93 | 1009.7 |
| 20260510061733 | 10 | 7 | 0.0 | 0.0 | 0.00 | 0.05 | 0.00 | 93 | 1009.8 |
| 20260510061416 | 10 | 7 | 0.0 | 0.0 | 0.00 | 0.05 | 0.00 | 93 | 1009.8 |
| 20260510061333 | 10 | 7 | 0.0 | 0.0 | 0.00 | 0.05 | 0.00 | 93 | 1009.8 |
| 20260510060232 | 10 | 7 | 0.0 | 0.0 | 0.00 | 0.05 | 0.00 | 93 | 1009.8 |
| 20260510055732 | 10 | 7 | 0.0 | 0.0 | 0.00 | 0.05 | 0.00 | 93 | 1009.8 |
| 20260510055233 | 10 | 7 | 0.0 | 0.0 | 0.00 | 0.05 | 0.00 | 93 | 1009.8 |
| 20260510054733 | 10 | 7 | 0.0 | 0.0 | 0.00 | 0.05 | 0.00 | 93 | 1010.0 |
| 20260510054232 | 10 | 7 | 0.0 | 0.0 | 0.00 | 0.05 | 0.00 | 93 | 1010.0 |
| 20260510053733 | 10 | 7 | 0.0 | 0.0 | 0.00 | 0.05 | 0.00 | 93 | 1010.1 |
| 20260510053233 | 10 | 7 | 0.0 | 0.0 | 0.00 | 0.05 | 0.00 | 93 | 1010.1 |
| 20260510053046 | 10 | 7 | 0.0 | 0.0 | 0.00 | 0.05 | 0.00 | 93 | 1010.1 |
| 20260510052552 | 10 | 7 | 0.0 | 0.0 | 0.00 | 0.05 | 0.00 | 93 | 1010.2 |
| 20260510051734 | 10 | 7 | 0.0 | 0.0 | 0.00 | 0.05 | 0.00 | 93 | 1010.3 |
| 20260510051232 | 10 | 7 | 0.0 | 0.0 | 0.00 | 0.05 | 0.00 | 93 | 1010.2 |
| 20260510050734 | 10 | 7 | 0.0 | 0.0 | 0.00 | 0.05 | 0.00 | 93 | 1010.4 |
| 20260510050233 | 10 | 7 | 0.0 | 0.0 | 0.00 | 0.05 | 0.00 | 93 | 1010.3 |
| 20260510045734 | 10 | 7 | 0.0 | 0.0 | 0.00 | 0.05 | 0.00 | 93 | 1010.3 |
| 20260510045232 | 10 | 7 | 0.0 | 0.0 | 0.00 | 0.05 | 0.00 | 92 | 1010.3 |
| 20260510044734 | 10 | 7 | 0.0 | 0.0 | 0.00 | 0.05 | 0.00 | 92 | 1010.3 |
| 20260510044234 | 10 | 7 | 0.0 | 0.0 | 0.00 | 0.05 | 0.00 | 92 | 1010.4 |
| 20260510043731 | 10 | 7 | 0.0 | 0.0 | 0.00 | 0.05 | 0.00 | 92 | 1010.4 |
| 20260510043555 | 10 | 7 | 0.0 | 0.0 | 0.00 | 0.05 | 0.00 | 92 | 1010.4 |
| 20260510042731 | 10 | 7 | 0.0 | 0.0 | 0.00 | 0.05 | 0.00 | 92 | 1010.5 |
| 20260510042558 | 10 | 7 | 0.0 | 0.0 | 0.00 | 0.05 | 0.00 | 92 | 1010.5 |
| 20260510041732 | 10 | 7 | 0.0 | 0.0 | 0.00 | 0.05 | 0.00 | 91 | 1010.4 |
| 20260510041232 | 10 | 7 | 0.0 | 0.0 | 0.00 | 0.05 | 0.00 | 92 | 1010.6 |
| 20260510040731 | 10 | 7 | 0.0 | 0.0 | 0.00 | 0.05 | 0.00 | 92 | 1010.5 |
| 20260510040555 | 10 | 7 | 0.0 | 0.0 | 0.00 | 0.05 | 0.00 | 92 | 1010.6 |
| 20260510040053 | 10 | 7 | 0.0 | 0.0 | 0.00 | 0.05 | 0.05 | 91 | 1010.6 |
| 20260510035231 | 10 | 7 | 0.0 | 0.0 | 0.00 | 0.05 | 0.05 | 91 | 1010.5 |
| 20260510034732 | 10 | 7 | 0.0 | 0.0 | 0.00 | 0.05 | 0.05 | 91 | 1010.5 |
| 20260510034545 | 10 | 7 | 0.0 | 0.0 | 0.00 | 0.05 | 0.05 | 91 | 1010.5 |
| 20260510033730 | 10 | 7 | 0.0 | 0.0 | 0.00 | 0.05 | 0.05 | 91 | 1010.4 |
| 20260510033231 | 10 | 7 | 0.0 | 0.0 | 0.00 | 0.05 | 0.05 | 91 | 1010.4 |
| 20260510032731 | 10 | 7 | 0.0 | 0.0 | 0.00 | 0.05 | 0.05 | 91 | 1010.3 |
| 20260510032232 | 11 | 7 | 0.0 | 0.0 | 0.00 | 0.05 | 0.05 | 91 | 1010.3 |
| 20260510031729 | 11 | 7 | 0.0 | 0.0 | 0.00 | 0.05 | 0.05 | 91 | 1010.3 |
| 20260510031556 | 11 | 7 | 0.0 | 0.0 | 0.00 | 0.05 | 0.05 | 91 | 1010.3 |
| 20260510030729 | 11 | 7 | 0.0 | 0.0 | 0.00 | 0.05 | 0.05 | 91 | 1010.2 |
| 20260510030229 | 11 | 7 | 0.0 | 0.0 | 0.00 | 0.05 | 0.05 | 91 | 1010.1 |
| 20260510025729 | 11 | 7 | 0.0 | 0.0 | 0.00 | 0.05 | 0.05 | 91 | 1010.1 |
| 20260510025230 | 11 | 7 | 0.0 | 0.0 | 0.00 | 0.05 | 0.05 | 91 | 1010.0 |
| 20260510024728 | 11 | 7 | 0.0 | 0.0 | 0.00 | 0.05 | 0.05 | 91 | 1010.0 |
| 20260510024229 | 11 | 7 | 0.0 | 0.0 | 0.00 | 0.05 | 0.05 | 91 | 1010.0 |
| 20260510023729 | 11 | 7 | 0.0 | 0.0 | 0.00 | 0.05 | 0.05 | 91 | 1010.1 |
| 20260510023230 | 11 | 7 | 0.0 | 0.0 | 0.00 | 0.05 | 0.05 | 91 | 1010.1 |
| 20260510022728 | -17 | 7 | 0.0 | 0.0 | 0.00 | 0.05 | 0.05 | 1010.2 | |
| 20260510022228 | -17 | 7 | 0.0 | 0.0 | 0.00 | 0.05 | 0.05 | 1010.2 | |
| 20260510021729 | -17 | 7 | 0.0 | 0.0 | 0.00 | 0.05 | 0.05 | 1010.1 | |
| 20260510021228 | 11 | 7 | 0.0 | 0.0 | 0.00 | 0.05 | 0.05 | 90 | 1010.1 |
| 20260510020729 | 11 | 7 | 0.0 | 0.0 | 0.00 | 0.05 | 0.05 | 90 | 1010.1 |
| 20260510020229 | 11 | 7 | 0.0 | 0.0 | 0.00 | 0.05 | 0.05 | 90 | 1010.0 |
| 20260510020051 | 11 | 7 | 0.0 | 0.0 | 0.00 | 0.05 | 0.05 | 90 | 1010.0 |
| 20260510015546 | 11 | 7 | 0.0 | 1.6 | 0.00 | 0.05 | 0.05 | 90 | 1009.9 |
| 20260510014730 | 11 | 7 | 0.0 | 1.6 | 0.00 | 0.05 | 0.05 | 90 | 1009.9 |
| 20260510014358 | 11 | 7 | 0.0 | 0.0 | 0.00 | 0.05 | 0.05 | 90 | 1009.9 |
| 20260510014324 | 11 | 7 | 0.0 | 0.0 | 0.00 | 0.05 | 0.05 | 90 | 1009.9 |
| 20260510013229 | 11 | 7 | 0.0 | 0.0 | 0.00 | 0.05 | 0.05 | 90 | 1009.9 |
| 20260510012729 | 11 | 7 | 0.0 | 0.0 | 0.00 | 0.05 | 0.05 | 90 | 1009.9 |
| 20260510012231 | 11 | 7 | 0.0 | 0.0 | 0.00 | 0.05 | 0.05 | 89 | 1009.9 |
| 20260510011729 | 11 | 7 | 0.0 | 0.0 | 0.00 | 0.05 | 0.05 | 88 | 1009.8 |
| 20260510011229 | 11 | 7 | 0.0 | 0.0 | 0.00 | 0.05 | 0.05 | 88 | 1009.7 |
| 20260510010924 | 11 | 7 | 0.0 | 1.6 | 0.00 | 0.05 | 0.05 | 88 | 1009.6 |
| 20260510010835 | 11 | 7 | 0.0 | 1.6 | 0.00 | 0.05 | 0.05 | 88 | 1009.6 |
| 20260510005729 | 11 | 7 | 0.0 | 0.0 | 0.00 | 0.05 | 0.05 | 88 | 1009.6 |
| 20260510005228 | 11 | 7 | 0.0 | 0.0 | 0.00 | 0.05 | 0.05 | 88 | 1009.5 |
| 20260510004727 | 11 | 7 | 0.0 | 0.0 | 0.00 | 0.05 | 0.05 | 88 | 1009.5 |
| 20260510004227 | 12 | 7 | 0.0 | 1.6 | 0.00 | 0.05 | 0.05 | 87 | 1009.5 |
| 20260510003917 | 12 | 7 | 0.0 | 0.0 | 0.00 | 0.05 | 0.05 | 86 | 1009.5 |
| 20260510003837 | 12 | 7 | 0.0 | 1.6 | 0.00 | 0.05 | 0.05 | 87 | 1009.4 |
| 20260510002727 | -17 | 7 | 0.0 | 0.0 | 0.00 | 0.05 | 0.05 | 1009.5 | |
| 20260510002227 | 12 | 7 | 0.0 | 0.0 | 0.00 | 0.05 | 0.05 | 85 | 1009.4 |
| 20260510001727 | 12 | 7 | 0.0 | 0.0 | 0.00 | 0.05 | 0.05 | 85 | 1009.5 |
| 20260510001225 | 12 | 7 | 0.0 | 0.0 | 0.00 | 0.05 | 0.05 | 85 | 1009.4 |
| 20260510000726 | 13 | 7 | 0.0 | 0.0 | 0.00 | 0.05 | 0.05 | 84 | 1009.4 |
| 20260510000226 | 13 | 7 | 0.0 | 0.0 | 0.00 | 0.05 | 0.05 | 84 | 1009.5 |
| 20260509235727 | 13 | 7 | 0.0 | 0.0 | 0.00 | 0.05 | 0.05 | 83 | 1009.5 |
| 20260509235537 | 13 | 7 | 0.0 | 0.0 | 0.00 | 0.05 | 0.05 | 83 | 1009.5 |
| 20260509234727 | 13 | 7 | 0.0 | 0.0 | 0.00 | 0.05 | 0.05 | 82 | 1009.5 |
| 20260509234545 | 13 | 7 | 0.0 | 0.0 | 0.00 | 0.05 | 0.05 | 82 | 1009.5 |
| 20260509234052 | 13 | 7 | 0.0 | 0.0 | 0.00 | 0.05 | 0.05 | 82 | 1009.4 |
| 20260509233226 | 14 | 7 | 0.0 | 1.6 | 0.00 | 0.05 | 0.05 | 82 | 1009.5 |
| 20260509232725 | 14 | 7 | 0.0 | 1.6 | 0.00 | 0.05 | 0.05 | 82 | 1009.5 |
| 20260509232225 | 14 | 7 | 0.0 | 3.2 | 0.00 | 0.05 | 0.05 | 82 | 1009.5 |
| 20260509231724 | 14 | 7 | 1.6 | 3.2 | 0.00 | 0.05 | 0.05 | 82 | 1009.4 |
| 20260509231223 | 14 | 21 | 0.0 | 1.6 | 0.00 | 0.05 | 0.05 | 81 | 1009.4 |
| 20260509230724 | 14 | 21 | 0.0 | 3.2 | 0.00 | 0.05 | 0.05 | 81 | 1009.4 |
| 20260509230223 | 14 | 21 | 1.6 | 3.2 | 0.00 | 0.05 | 0.05 | 82 | 1009.3 |
| 20260509225724 | 14 | 350 | 0.0 | 3.2 | 0.00 | 0.05 | 0.03 | 82 | 1009.3 |
| 20260509225225 | 14 | 145 | 0.0 | 1.6 | 0.00 | 0.05 | 0.03 | 82 | 1009.3 |
| 20260509224723 | 14 | 145 | 0.0 | 3.2 | 0.00 | 0.05 | 0.03 | 82 | 1009.4 |
| 20260509224223 | 14 | 116 | 1.6 | 3.2 | 0.00 | 0.05 | 0.03 | 82 | 1009.4 |
| 20260509223724 | 14 | 134 | 0.0 | 3.2 | 0.00 | 0.05 | 0.03 | 83 | 1009.4 |
| 20260509223223 | 14 | 134 | 1.6 | 3.2 | 0.00 | 0.05 | 0.03 | 84 | 1009.5 |
| 20260509222722 | 13 | 111 | 1.6 | 3.2 | 0.00 | 0.05 | 0.03 | 84 | 1009.5 |
| 20260509222224 | 13 | 75 | 0.0 | 1.6 | 0.00 | 0.05 | 0.03 | 84 | 1009.5 |
| 20260509221722 | 13 | 93 | 0.0 | 3.2 | 0.00 | 0.05 | 0.03 | 84 | 1009.5 |
| 20260509221223 | 13 | 117 | 0.0 | 3.2 | 0.00 | 0.05 | 0.03 | 84 | 1009.4 |
| 20260509220722 | 13 | 114 | 0.0 | 3.2 | 0.00 | 0.05 | 0.03 | 85 | 1009.5 |
| 20260509220548 | 13 | 39 | 1.6 | 3.2 | 0.00 | 0.05 | 0.05 | 85 | 1009.5 |
| 20260509215723 | 13 | 103 | 0.0 | 3.2 | 0.03 | 0.03 | 0.05 | 86 | 1009.5 |
| 20260509215221 | 13 | 35 | 0.0 | 3.2 | 0.03 | 0.03 | 0.05 | 86 | 1009.5 |
| 20260509214724 | 13 | 28 | 0.0 | 3.2 | 0.03 | 0.03 | 0.05 | 86 | 1009.5 |
| 20260509214223 | 13 | 42 | 1.6 | 3.2 | 0.03 | 0.03 | 0.05 | 86 | 1009.5 |
| 20260509213722 | 13 | 42 | 0.0 | 3.2 | 0.03 | 0.03 | 0.05 | 86 | 1009.6 |
| 20260509213221 | 13 | 51 | 0.0 | 1.6 | 0.03 | 0.03 | 0.05 | 85 | 1009.5 |
| 20260509212723 | 14 | 51 | 0.0 | 4.8 | 0.03 | 0.03 | 0.05 | 85 | 1009.5 |
| 20260509212222 | 14 | 51 | 1.6 | 4.8 | 0.03 | 0.03 | 0.05 | 85 | 1009.5 |
| 20260509211748 | 14 | 37 | 1.6 | 3.2 | 0.03 | 0.03 | 0.05 | 85 | 1009.5 |
| 20260509211743 | 14 | 45 | 1.6 | 3.2 | 0.03 | 0.03 | 0.05 | 84 | 1009.5 |
| 20260509211731 | 14 | 52 | 1.6 | 3.2 | 0.03 | 0.03 | 0.05 | 84 | 1009.4 |
| 20260509210549 | 14 | 37 | 0.0 | 3.2 | 0.03 | 0.03 | 0.05 | 84 | 1009.5 |
| 20260509205722 | -17 | 47 | 0.0 | 0.0 | 0.00 | 0.03 | 0.03 | 1009.3 | |
| 20260509205711 | -17 | 45 | 1.6 | 1.6 | 0.00 | 0.03 | 0.03 | 1009.4 | |
| 20260509204717 | 15 | 45 | 1.6 | 3.2 | 0.00 | 0.03 | 0.03 | 82 | 1009.4 |
| 20260509204216 | 15 | 45 | 1.6 | 3.2 | 0.00 | 0.03 | 0.03 | 82 | 1009.5 |
| 20260509203718 | 15 | 45 | 1.6 | 3.2 | 0.00 | 0.03 | 0.03 | 80 | 1009.6 |
| 20260509203217 | 15 | 44 | 3.2 | 6.4 | 0.00 | 0.03 | 0.03 | 80 | 1009.6 |
| 20260509202716 | 15 | 39 | 3.2 | 6.4 | 0.00 | 0.03 | 0.03 | 79 | 1009.7 |
| 20260509202218 | 15 | 41 | 3.2 | 6.4 | 0.00 | 0.03 | 0.03 | 80 | 1009.5 |
| 20260509201717 | 15 | 39 | 3.2 | 6.4 | 0.00 | 0.03 | 0.03 | 81 | 1009.3 |
| 20260509201217 | 15 | 27 | 1.6 | 6.4 | 0.00 | 0.03 | 0.03 | 83 | 1009.4 |
| 20260509200716 | 15 | 44 | 1.6 | 8.0 | 0.00 | 0.03 | 0.03 | 84 | 1009.5 |
| 20260509200534 | 15 | 49 | 3.2 | 8.0 | 0.00 | 0.03 | 0.03 | 84 | 1009.6 |
| 20260509200034 | 14 | 28 | 3.2 | 8.0 | 0.00 | 0.03 | 0.03 | 86 | 1009.6 |
| 20260509195217 | 14 | 51 | 3.2 | 8.0 | 0.03 | 0.03 | 0.03 | 85 | 1009.6 |
| 20260509194715 | 14 | 41 | 3.2 | 4.8 | 0.03 | 0.03 | 0.03 | 86 | 1009.4 |
| 20260509194215 | 13 | 35 | 3.2 | 6.4 | 0.03 | 0.03 | 0.03 | 85 | 1009.4 |
| 20260509193717 | 13 | 48 | 1.6 | 6.4 | 0.03 | 0.03 | 0.03 | 86 | 1009.5 |
| 20260509193215 | 13 | 39 | 0.0 | 6.4 | 0.03 | 0.03 | 0.03 | 86 | 1009.8 |
| 20260509192716 | 13 | 37 | 1.6 | 4.8 | 0.03 | 0.03 | 0.03 | 86 | 1009.8 |
| 20260509192216 | 13 | 35 | 1.6 | 6.4 | 0.03 | 0.03 | 0.03 | 86 | 1010.0 |
| 20260509192042 | 13 | 37 | 3.2 | 6.4 | 0.03 | 0.03 | 0.03 | 85 | 1010.0 |
| 20260509191217 | 13 | 18 | 0.0 | 6.4 | 0.03 | 0.03 | 0.03 | 85 | 1010.0 |
| 20260509190716 | 13 | 35 | 0.0 | 8.0 | 0.03 | 0.03 | 0.03 | 85 | 1010.2 |
| 20260509190217 | 13 | 63 | 3.2 | 8.0 | 0.03 | 0.03 | 0.03 | 83 | 1010.2 |
| 20260509185716 | 13 | 3 | 0.0 | 6.4 | 0.03 | 0.00 | 0.00 | 84 | 1010.2 |
| 20260509185215 | 13 | 20 | 3.2 | 6.4 | 0.00 | 0.00 | 0.00 | 83 | 1010.3 |
| 20260509184716 | 13 | 37 | 3.2 | 6.4 | 0.00 | 0.00 | 0.00 | 82 | 1010.4 |
| 20260509184216 | 13 | 27 | 0.0 | 3.2 | 0.00 | 0.00 | 0.00 | 82 | 1010.6 |
| 20260509183717 | 13 | 0 | 0.0 | 3.2 | 0.00 | 0.00 | 0.00 | 83 | 1010.6 |
| 20260509183213 | 13 | 337 | 1.6 | 6.4 | 0.00 | 0.00 | 0.00 | 83 | 1010.5 |
| 20260509182714 | 13 | 44 | 1.6 | 6.4 | 0.00 | 0.00 | 0.00 | 83 | 1010.5 |
| 20260509182529 | 13 | 16 | 1.6 | 6.4 | 0.00 | 0.00 | 0.00 | 84 | 1010.5 |
| 20260509181713 | 14 | 24 | 3.2 | 6.4 | 0.00 | 0.00 | 0.00 | 79 | 1010.5 |
| 20260509181215 | -17 | 37 | 0.0 | 0.0 | 0.00 | 0.00 | 0.00 | 1010.6 | |
| 20260509180712 | 14 | 32 | 0.0 | 3.2 | 0.00 | 0.00 | 0.00 | 79 | 1010.8 |
| 20260509180210 | 14 | 32 | 0.0 | 6.4 | 0.00 | 0.00 | 0.00 | 79 | 1010.8 |
| 20260509175710 | 15 | 56 | 3.2 | 6.4 | 0.00 | 0.00 | 0.00 | 79 | 1010.8 |
| 20260509175209 | 15 | 38 | 1.6 | 6.4 | 0.00 | 0.00 | 0.00 | 78 | 1010.8 |
| 20260509174710 | 15 | 76 | 1.6 | 4.8 | 0.00 | 0.00 | 0.00 | 75 | 1010.9 |
| 20260509174208 | 15 | 283 | 1.6 | 3.2 | 0.00 | 0.00 | 0.00 | 74 | 1010.9 |
| 20260509173710 | 15 | 295 | 1.6 | 3.2 | 0.00 | 0.00 | 0.00 | 73 | 1010.8 |
| 20260509173208 | 16 | 224 | 0.0 | 4.8 | 0.00 | 0.00 | 0.00 | 75 | 1010.8 |
| 20260509172710 | 16 | 41 | 0.0 | 4.8 | 0.00 | 0.00 | 0.00 | 74 | 1010.7 |
| 20260509172210 | 16 | 305 | 1.6 | 3.2 | 0.00 | 0.00 | 0.00 | 73 | 1010.6 |
| 20260509171710 | 16 | 258 | 1.6 | 3.2 | 0.00 | 0.00 | 0.00 | 72 | 1010.5 |
| 20260509171410 | 16 | 44 | 0.0 | 4.8 | 0.00 | 0.00 | 0.00 | 75 | 1010.4 |
| 20260509171320 | 16 | 288 | 0.0 | 4.8 | 0.00 | 0.00 | 0.00 | 76 | 1010.4 |
| 20260509170209 | 16 | 23 | 1.6 | 4.8 | 0.00 | 0.00 | 0.00 | 74 | 1010.4 |
| 20260509165708 | 16 | 1 | 0.0 | 3.2 | 0.00 | 0.00 | 0.00 | 75 | 1010.6 |
| 20260509165208 | 16 | 275 | 0.0 | 4.8 | 0.00 | 0.00 | 0.00 | 76 | 1010.7 |
| 20260509165031 | 16 | 279 | 1.6 | 8.0 | 0.00 | 0.00 | 0.00 | 77 | 1010.7 |
| 20260509164208 | 15 | 286 | 3.2 | 8.0 | 0.00 | 0.00 | 0.00 | 78 | 1010.6 |
| 20260509164024 | 15 | 99 | 1.6 | 4.8 | 0.00 | 0.00 | 0.00 | 78 | 1010.5 |
| 20260509163532 | 15 | 281 | 3.2 | 4.8 | 0.00 | 0.00 | 0.00 | 77 | 1010.6 |
| 20260509162707 | 15 | 41 | 1.6 | 4.8 | 0.00 | 0.00 | 0.00 | 77 | 1010.5 |
| 20260509162224 | 15 | 274 | 0.0 | 3.2 | 0.00 | 0.00 | 0.00 | 80 | 1010.7 |
| 20260509162217 | 15 | 274 | 0.0 | 3.2 | 0.00 | 0.00 | 0.00 | 80 | 1010.6 |
| 20260509162209 | 15 | 106 | 1.6 | 4.8 | 0.00 | 0.00 | 0.00 | 78 | 1010.5 |
| 20260509160707 | 15 | 295 | 0.0 | 1.6 | 0.00 | 0.00 | 0.00 | 80 | 1010.8 |
| 20260509160527 | 15 | 295 | 0.0 | 3.2 | 0.00 | 0.00 | 0.00 | 80 | 1011.1 |
| 20260509155706 | 15 | 295 | 0.0 | 3.2 | 0.00 | 0.00 | 0.00 | 79 | 1011.2 |
| 20260509155205 | 16 | 76 | 1.6 | 3.2 | 0.00 | 0.00 | 0.00 | 77 | 1011.1 |
| 20260509154706 | 16 | 293 | 1.6 | 6.4 | 0.00 | 0.00 | 0.00 | 76 | 1011.3 |
| 20260509154524 | 16 | 299 | 3.2 | 6.4 | 0.00 | 0.00 | 0.00 | 73 | 1011.5 |